Location: Gouy
(50.0008°N, 3.2556°E)
Time: 20:56:10
(UTC+00:00)

Cosmos 2369 - Pass Details

Date: 23 May 2024
Orbit: 837 x 856 km, 71.0° (Epoch: 14 June)

Event Time Altitude Azimuth Distance (km) Brightness Sun altitude
Rises 01:15:22 0° 325° (NW) 3,429 7.3 -16.5°
Reaches altitude 10° 01:17:59 10° 317° (NW) 2,491 6.5 -16.3°
Maximum altitude 01:23:07 35° 253° (WSW) 1,342 4.4 -16.0°
Enters shadow 01:25:34 25° 209° (SSW) 1,673 4.6 -15.8°
